Flag for Romania

Past Weather in Ploiești, Romania — Yesterday and Last 2 Weeks

Now
54 °F

Clear.


Feels Like: 54 °F
Forecast: 78 / 52 °F
Wind: 1 mph from Northeast

Location: Ploiesti
Current Time: Sep 28, 2020 at 12:17:57 am
Latest Report: Sep 27, 2020 at 11:00 pm
Visibility: 6 mi
Pressure30.03 "Hg
Humidity: 71%
Dew Point: 45 °F
Location of PloieștiLocation

Past Weather in Ploiești — Graph

°F

Ploiești Temperature Yesterday

Maximum temperature yesterday: 71 °F (at 3:00 pm)
Minimum temperature yesterday: 52 °F (at 10:00 pm)
Average temperature yesterday: 60 °F

High & Low Weather Summary for the Past Weeks

 TemperatureHumidityPressure
High87 °F (Sep 16, 5:00 pm)98% (Sep 26, 11:00 pm)30.34 "Hg (Sep 26, 11:00 pm)
Low46 °F (Sep 20, 2:00 am)23% (Sep 20, 3:00 pm)29.35 "Hg (Sep 26, 8:00 pm)
Average67 °F58%30.04 "Hg
* Reported Sep 12 10:00 pm — Sep 27 10:00 pm, Ploiești. Weather by CustomWeather, © 2020

Note: Actual official high and low records may vary slightly from our data, if they occured in-between our weather recording intervals... More about our weather records

Ploiești Weather History for the Previous 24 Hours

Scroll right to see more
 ConditionsComfort  
Time TempWeatherWind HumidityBarometerVisibility
10:00 pm
Sun, Sep 27
52 °FClear.1 mph76%30.02 "Hg6 mi
9:00 pm53 °FClear.1 mph67%29.99 "Hg6 mi
8:00 pm57 °FClear.No wind58%29.96 "Hg6 mi
7:00 pm67 °FSunny.2 mph41%29.93 "Hg6 mi
6:00 pm70 °FSunny.5 mph36%29.92 "Hg6 mi
5:00 pm71 °FSunny.7 mph36%29.89 "Hg6 mi
3:00 pm71 °FSunny.6 mph38%29.84 "Hg6 mi
2:00 pm71 °FPassing clouds.6 mph41%29.83 "Hg6 mi
1:00 pm69 °FSunny.6 mph49%29.80 "Hg6 mi
12:00 pm66 °FSunny.6 mph55%29.79 "Hg6 mi
11:00 am62 °FSunny.6 mph69%29.77 "Hg6 mi
10:00 am58 °FSunny.5 mph81%29.74 "Hg6 mi
9:00 am54 °FSunny.5 mph90%29.72 "Hg6 mi
8:00 am53 °FSunny.3 mph91%29.69 "Hg6 mi
7:00 am53 °FClear.2 mph95%29.65 "Hg6 mi
6:00 am53 °FClear.2 mph95%29.62 "Hg6 mi
5:00 am55 °FPassing clouds.2 mph98%29.59 "Hg6 mi
4:00 am57 °FPassing clouds.2 mph95%29.57 "Hg6 mi
3:00 am58 °FOvercast.2 mph98%29.55 "Hg6 mi
2:00 am59 °FOvercast.2 mph97%29.54 "Hg6 mi
1:00 am60 °FOvercast.2 mph98%29.50 "Hg6 mi
12:00 am60 °FSprinkles. Overcast.2 mph98%29.47 "Hg6 mi
Weather by CustomWeather, © 2020

See weather overview